QPF
0.02 0.01 0.01 0.00 0.00 0.00 0.00 0.00 0.01 0.00 0.00 0.00 0.00 0.00 0.00 0.00 0.00 0.00 0.00 0.00 0.00 0.00 0.00 0.00 0.00 0.00 0.01 0.01 0.01 0.01 0.01 0.01 0.01 0.01 0.01 0.01 0.01 0.01 0.02 0.02 0.02 0.01 0.01
0.01 0.01 0.01 0.00 0.00 0.00 0.00 0.00 0.01 0.01 0.00 0.00 0.00 0.00 0.00 0.00 0.00 0.00 0.00 0.00 0.00 0.00 0.00 0.00 0.00 0.00 0.00 0.00 0.01 0.01 0.01 0.01 0.02 0.02 0.02 0.02 0.01 0.01 0.03 0.03 0.02 0.01 0.00
0.02 0.01 0.00 0.00 0.00 0.00 0.00 0.00 0.01 0.00 0.00 0.00 0.00 0.00 0.00 0.00 0.00 0.00 0.00 0.00 0.00 0.00 0.00 0.00 0.00 0.00 0.00 0.00 0.00 0.00 0.01 0.02 0.04 0.06 0.05 0.02 0.01 0.02 0.03 0.03 0.02 0.01 0.00
0.02 0.01 0.00 0.00 0.00 0.00 0.00 0.00 0.00 0.00 0.00 0.00 0.00 0.00 0.01 0.00 0.00 0.00 0.00 0.00 0.00 0.00 0.00 0.00 0.00 0.00 0.00 0.00 0.00 0.00 0.01 0.02 0.04 0.06 0.07 0.05 0.04 0.05 0.03 0.02 0.02 0.01 0.00
0.01 0.01 0.01 0.01 0.01 0.00 0.00 0.00 0.00 0.00 0.00 0.00 0.00 0.00 0.00 0.00 0.00 0.00 0.00 0.00 0.00 0.00 0.00 0.00 0.00 0.00 0.00 0.00 0.00 0.00 0.01 0.02 0.04 0.07 0.12 0.12 0.10 0.11 0.04 0.02 0.01 0.01 0.00
0.01 0.01 0.01 0.01 0.01 0.01 0.00 0.00 0.00 0.00 0.00 0.00 0.00 0.01 0.01 0.01 0.01 0.01 0.00 0.00 0.00 0.00 0.00 0.00 0.00 0.00 0.00 0.00 0.00 0.01 0.02 0.04 0.05 0.06 0.10 0.10 0.13 0.14 0.05 0.03 0.02 0.02 0.01
0.01 0.01 0.01 0.01 0.01 0.01 0.01 0.01 0.01 0.00 0.01 0.01 0.01 0.01 0.01 0.01 0.01 0.01 0.01 0.01 0.00 0.01 0.00 0.00 0.00 0.00 0.00 0.00 0.01 0.01 0.02 0.05 0.06 0.07 0.11 0.11 0.10 0.14 0.09 0.05 0.02 0.02 0.01
0.02 0.01 0.02 0.02 0.02 0.02 0.02 0.01 0.02 0.02 0.01 0.01 0.01 0.01 0.01 0.01 0.01 0.01 0.01 0.01 0.01 0.01 0.01 0.01 0.00 0.00 0.01 0.00 0.01 0.01 0.02 0.04 0.08 0.08 0.10 0.10 0.08 0.11 0.10 0.06 0.04 0.02 0.01
0.09 0.07 0.03 0.03 0.03 0.03 0.03 0.02 0.02 0.02 0.01 0.01 0.01 0.01 0.02 0.02 0.01 0.02 0.02 0.02 0.02 0.02 0.02 0.01 0.01 0.01 0.01 0.01 0.01 0.01 0.02 0.05 0.09 0.09 0.09 0.10 0.09 0.10 0.10 0.08 0.04 0.03 0.02
0.10 0.18 0.06 0.03 0.03 0.03 0.02 0.04 0.04 0.03 0.02 0.02 0.02 0.02 0.02 0.02 0.02 0.03 0.03 0.03 0.03 0.03 0.03 0.02 0.02 0.02 0.01 0.01 0.01 0.01 0.03 0.04 0.04 0.07 0.11 0.12 0.12 0.13 0.11 0.08 0.05 0.03 0.02
0.05 0.09 0.06 0.05 0.05 0.05 0.06 0.07 0.07 0.06 0.04 0.03 0.03 0.03 0.02 0.02 0.02 0.03 0.05 0.06 0.05 0.04 0.04 0.03 0.02 0.02 0.02 0.02 0.02 0.03 0.03 0.03 0.05 0.12 0.15 0.16 0.15 0.16 0.12 0.09 0.06 0.04 0.04
0.04 0.04 0.04 0.06 0.11 0.12 0.11 0.11 0.11 0.08 0.06 0.05 0.04 0.03 0.02 0.02 0.03 0.03 0.05 0.07 0.08 0.07 0.05 0.04 0.04 0.03 0.03 0.02 0.03 0.05 0.04 0.08 0.11 0.19 0.21 0.19 0.16 0.17 0.14 0.10 0.08 0.06 0.04
0.04 0.05 0.05 0.04 0.05 0.07 0.06 0.09 0.11 0.10 0.08 0.06 0.05 0.05 0.04 0.03 0.04 0.06 0.07 0.07 0.07 0.07 0.06 0.04 0.05 0.05 0.04 0.06 0.06 0.08 0.09 0.10 0.14 0.15 0.21 0.18 0.17 0.20 0.17 0.12 0.08 0.07 0.06
0.04 0.04 0.06 0.06 0.07 0.10 0.07 0.06 0.14 0.13 0.07 0.06 0.07 0.11 0.09 0.06 0.07 0.10 0.14 0.10 0.09 0.07 0.06 0.05 0.06 0.09 0.11 0.09 0.08 0.11 0.13 0.13 0.14 0.14 0.16 0.23 0.20 0.18 0.16 0.12 0.09 0.08 0.07
0.04 0.04 0.04 0.06 0.06 0.08 0.08 0.07 0.07 0.09 0.09 0.08 0.12 0.20 0.16 0.09 0.07 0.09 0.11 0.13 0.11 0.12 0.10 0.08 0.09 0.09 0.09 0.07 0.07 0.09 0.13 0.14 0.13 0.14 0.13 0.14 0.14 0.13 0.13 0.13 0.11 0.11 0.10
0.07 0.07 0.06 0.04 0.03 0.05 0.06 0.06 0.06 0.06 0.06 0.08 0.11 0.14 0.12 0.09 0.10 0.15 0.16 0.13 0.09 0.09 0.09 0.10 0.11 0.09 0.08 0.06 0.05 0.05 0.07 0.09 0.10 0.09 0.11 0.12 0.10 0.08 0.10 0.13 0.13 0.12 0.12
0.12 0.10 0.08 0.04 0.03 0.04 0.05 0.05 0.05 0.05 0.05 0.06 0.09 0.14 0.13 0.12 0.12 0.15 0.18 0.18 0.12 0.08 0.06 0.06 0.08 0.09 0.06 0.05 0.05 0.04 0.06 0.06 0.06 0.05 0.07 0.09 0.09 0.09 0.10 0.10 0.11 0.11 0.10
0.16 0.14 0.09 0.04 0.03 0.04 0.03 0.03 0.04 0.04 0.05 0.05 0.06 0.06 0.06 0.08 0.08 0.08 0.08 0.08 0.07 0.07 0.05 0.05 0.07 0.09 0.07 0.04 0.04 0.05 0.05 0.05 0.04 0.04 0.05 0.06 0.07 0.06 0.07 0.08 0.08 0.09 0.10
0.19 0.18 0.13 0.06 0.04 0.04 0.04 0.03 0.03 0.03 0.03 0.03 0.03 0.03 0.04 0.04 0.05 0.05 0.05 0.04 0.03 0.02 0.03 0.04 0.06 0.05 0.05 0.04 0.04 0.03 0.03 0.03 0.04 0.05 0.06 0.06 0.05 0.05 0.04 0.06 0.08 0.09 0.09
0.10 0.10 0.12 0.12 0.11 0.05 0.04 0.02 0.01 0.01 0.02 0.03 0.03 0.04 0.04 0.05 0.06 0.06 0.04 0.03 0.03 0.03 0.03 0.04 0.04 0.04 0.06 0.06 0.04 0.04 0.03 0.04 0.05 0.05 0.04 0.05 0.06 0.05 0.03 0.04 0.05 0.07 0.08
0.07 0.06 0.05 0.06 0.07 0.04 0.02 0.01 0.01 0.01 0.02 0.02 0.03 0.03 0.03 0.03 0.04 0.04 0.05 0.04 0.04 0.03 0.04 0.07 0.07 0.06 0.06 0.05 0.05 0.05 0.04 0.04 0.04 0.04 0.04 0.04 0.04 0.04 0.03 0.04 0.05 0.07 0.07
0.05 0.05 0.04 0.04 0.03 0.03 0.02 0.01 0.01 0.01 0.01 0.01 0.02 0.02 0.03 0.04 0.03 0.03 0.05 0.06 0.06 0.04 0.03 0.04 0.08 0.09 0.07 0.06 0.06 0.06 0.04 0.04 0.04 0.04 0.04 0.04 0.04 0.04 0.04 0.04 0.04 0.05 0.05
0.03 0.03 0.03 0.03 0.02 0.02 0.02 0.02 0.02 0.01 0.01 0.01 0.03 0.03 0.03 0.03 0.03 0.04 0.06 0.05 0.05 0.04 0.04 0.04 0.05 0.07 0.07 0.07 0.08 0.07 0.05 0.03 0.04 0.05 0.06 0.07 0.07 0.04 0.03 0.02 0.03 0.03 0.04
0.04 0.03 0.03 0.03 0.03 0.02 0.02 0.02 0.02 0.02 0.02 0.02 0.04 0.05 0.03 0.03 0.03 0.03 0.04 0.05 0.05 0.03 0.03 0.04 0.03 0.03 0.04 0.05 0.06 0.05 0.07 0.06 0.05 0.05 0.06 0.09 0.09 0.06 0.03 0.02 0.02 0.03 0.04
0.09 0.06 0.04 0.04 0.03 0.04 0.03 0.02 0.02 0.03 0.04 0.04 0.05 0.05 0.04 0.03 0.04 0.03 0.03 0.03 0.02 0.02 0.02 0.03 0.03 0.02 0.02 0.03 0.03 0.04 0.05 0.05 0.04 0.05 0.05 0.07 0.08 0.06 0.03 0.02 0.02 0.02 0.03
0.13 0.11 0.07 0.05 0.04 0.03 0.03 0.03 0.02 0.02 0.03 0.05 0.05 0.04 0.04 0.04 0.04 0.03 0.03 0.02 0.02 0.02 0.02 0.02 0.02 0.02 0.02 0.03 0.03 0.03 0.04 0.04 0.05 0.05 0.04 0.03 0.04 0.04 0.04 0.03 0.02 0.02 0.03
MSLP
1015.17 1014.62 1014.31 1014.30 1014.52 1014.91 1015.33 1015.69 1015.92 1016.00 1015.96 1015.88 1015.83 1015.87 1016.03 1016.29 1016.60 1016.92 1017.18 1017.36 1017.47 1017.51 1017.54 1017.58 1017.66 1017.79 1017.93 1018.07 1018.18 1018.24 1018.26 1018.24 1018.22 1018.21 1018.24 1018.31 1018.41 1018.53 1018.65 1018.73 1018.79 1018.82 1018.83
1014.97 1014.57 1014.40 1014.49 1014.79 1015.21 1015.64 1015.98 1016.19 1016.25 1016.21 1016.16 1016.14 1016.23 1016.42 1016.69 1017.00 1017.29 1017.51 1017.65 1017.71 1017.73 1017.74 1017.79 1017.88 1018.01 1018.16 1018.29 1018.37 1018.40 1018.38 1018.33 1018.28 1018.27 1018.31 1018.41 1018.54 1018.68 1018.81 1018.91 1018.97 1019.00 1019.02
1014.69 1014.44 1014.41 1014.62 1015.01 1015.48 1015.92 1016.26 1016.46 1016.52 1016.50 1016.46 1016.48 1016.58 1016.78 1017.05 1017.33 1017.57 1017.74 1017.82 1017.84 1017.84 1017.85 1017.90 1018.00 1018.14 1018.29 1018.40 1018.46 1018.46 1018.42 1018.35 1018.31 1018.31 1018.37 1018.49 1018.65 1018.81 1018.96 1019.06 1019.12 1019.16 1019.19
1014.42 1014.31 1014.41 1014.73 1015.19 1015.71 1016.18 1016.52 1016.72 1016.79 1016.78 1016.77 1016.80 1016.91 1017.11 1017.34 1017.57 1017.76 1017.87 1017.91 1017.89 1017.88 1017.88 1017.94 1018.06 1018.20 1018.33 1018.44 1018.48 1018.46 1018.41 1018.36 1018.33 1018.36 1018.45 1018.59 1018.77 1018.94 1019.08 1019.19 1019.25 1019.29 1019.34
1014.24 1014.25 1014.46 1014.86 1015.38 1015.92 1016.40 1016.75 1016.96 1017.04 1017.04 1017.04 1017.09 1017.20 1017.38 1017.58 1017.76 1017.89 1017.95 1017.94 1017.91 1017.88 1017.89 1017.96 1018.08 1018.22 1018.35 1018.44 1018.47 1018.45 1018.41 1018.37 1018.37 1018.43 1018.56 1018.72 1018.90 1019.07 1019.20 1019.29 1019.34 1019.39 1019.46
1014.24 1014.33 1014.60 1015.05 1015.59 1016.13 1016.60 1016.94 1017.14 1017.22 1017.24 1017.27 1017.33 1017.44 1017.60 1017.77 1017.91 1017.99 1018.01 1017.98 1017.93 1017.91 1017.93 1018.01 1018.13 1018.27 1018.38 1018.46 1018.48 1018.46 1018.43 1018.41 1018.45 1018.54 1018.69 1018.87 1019.04 1019.19 1019.29 1019.36 1019.40 1019.44 1019.52
1014.46 1014.58 1014.88 1015.33 1015.84 1016.35 1016.77 1017.08 1017.25 1017.34 1017.37 1017.42 1017.50 1017.62 1017.77 1017.92 1018.04 1018.09 1018.09 1018.05 1018.00 1017.99 1018.03 1018.11 1018.24 1018.36 1018.46 1018.52 1018.52 1018.50 1018.48 1018.49 1018.55 1018.67 1018.84 1019.01 1019.17 1019.29 1019.36 1019.38 1019.40 1019.44 1019.53
1014.86 1014.99 1015.28 1015.69 1016.14 1016.57 1016.92 1017.17 1017.31 1017.38 1017.44 1017.50 1017.61 1017.75 1017.91 1018.05 1018.15 1018.20 1018.19 1018.15 1018.12 1018.13 1018.18 1018.27 1018.39 1018.51 1018.58 1018.62 1018.60 1018.57 1018.55 1018.57 1018.65 1018.78 1018.95 1019.12 1019.26 1019.34 1019.37 1019.36 1019.35 1019.38 1019.48
1015.38 1015.51 1015.76 1016.10 1016.47 1016.80 1017.06 1017.24 1017.33 1017.39 1017.45 1017.54 1017.68 1017.84 1018.02 1018.16 1018.26 1018.30 1018.29 1018.27 1018.26 1018.28 1018.35 1018.45 1018.57 1018.67 1018.72 1018.73 1018.69 1018.64 1018.61 1018.63 1018.71 1018.84 1019.00 1019.16 1019.28 1019.33 1019.32 1019.29 1019.26 1019.27 1019.37
1015.96 1016.07 1016.28 1016.55 1016.82 1017.05 1017.21 1017.30 1017.36 1017.40 1017.46 1017.58 1017.74 1017.93 1018.11 1018.26 1018.35 1018.39 1018.38 1018.36 1018.36 1018.40 1018.48 1018.59 1018.71 1018.80 1018.83 1018.81 1018.75 1018.68 1018.63 1018.63 1018.70 1018.82 1018.97 1019.11 1019.20 1019.24 1019.22 1019.17 1019.13 1019.14 1019.24
1016.52 1016.63 1016.80 1017.00 1017.18 1017.31 1017.38 1017.41 1017.42 1017.45 1017.52 1017.65 1017.83 1018.03 1018.21 1018.35 1018.42 1018.44 1018.42 1018.39 1018.39 1018.44 1018.53 1018.65 1018.77 1018.85 1018.88 1018.84 1018.76 1018.66 1018.59 1018.56 1018.60 1018.70 1018.83 1018.95 1019.04 1019.08 1019.06 1019.01 1018.98 1019.00 1019.09
1017.05 1017.16 1017.31 1017.44 1017.54 1017.59 1017.60 1017.57 1017.56 1017.58 1017.66 1017.80 1017.99 1018.18 1018.34 1018.44 1018.48 1018.46 1018.40 1018.36 1018.34 1018.39 1018.48 1018.61 1018.73 1018.81 1018.84 1018.79 1018.69 1018.58 1018.47 1018.42 1018.42 1018.49 1018.60 1018.71 1018.80 1018.84 1018.85 1018.83 1018.81 1018.84 1018.94
1017.54 1017.66 1017.79 1017.88 1017.92 1017.92 1017.87 1017.82 1017.79 1017.82 1017.91 1018.05 1018.23 1018.39 1018.51 1018.56 1018.54 1018.46 1018.36 1018.27 1018.23 1018.25 1018.34 1018.47 1018.59 1018.68 1018.71 1018.67 1018.56 1018.43 1018.30 1018.21 1018.18 1018.21 1018.28 1018.38 1018.47 1018.54 1018.58 1018.60 1018.62 1018.68 1018.77
1018.03 1018.16 1018.26 1018.32 1018.32 1018.28 1018.21 1018.15 1018.13 1018.16 1018.26 1018.40 1018.56 1018.68 1018.75 1018.73 1018.63 1018.48 1018.31 1018.16 1018.08 1018.08 1018.15 1018.26 1018.39 1018.49 1018.52 1018.48 1018.37 1018.23 1018.08 1017.95 1017.88 1017.87 1017.91 1017.99 1018.08 1018.17 1018.25 1018.31 1018.38 1018.47 1018.58
1018.54 1018.66 1018.74 1018.77 1018.74 1018.68 1018.60 1018.55 1018.54 1018.60 1018.70 1018.83 1018.96 1019.04 1019.03 1018.94 1018.76 1018.54 1018.30 1018.09 1017.96 1017.91 1017.95 1018.05 1018.16 1018.25 1018.29 1018.25 1018.15 1018.00 1017.83 1017.67 1017.55 1017.49 1017.49 1017.54 1017.63 1017.73 1017.84 1017.96 1018.08 1018.20 1018.33
1019.11 1019.20 1019.24 1019.23 1019.18 1019.10 1019.03 1018.99 1019.01 1019.08 1019.19 1019.31 1019.40 1019.42 1019.36 1019.20 1018.95 1018.65 1018.35 1018.09 1017.91 1017.81 1017.80 1017.86 1017.95 1018.02 1018.05 1018.01 1017.90 1017.74 1017.55 1017.37 1017.21 1017.11 1017.06 1017.08 1017.14 1017.24 1017.38 1017.53 1017.69 1017.85 1018.02
1019.72 1019.76 1019.75 1019.69 1019.61 1019.52 1019.46 1019.44 1019.48 1019.57 1019.68 1019.78 1019.83 1019.81 1019.69 1019.47 1019.17 1018.83 1018.48 1018.17 1017.94 1017.79 1017.73 1017.74 1017.77 1017.81 1017.81 1017.75 1017.64 1017.47 1017.28 1017.07 1016.88 1016.74 1016.65 1016.62 1016.65 1016.74 1016.88 1017.05 1017.25 1017.45 1017.64
1020.36 1020.33 1020.25 1020.14 1020.02 1019.92 1019.87 1019.87 1019.93 1020.02 1020.13 1020.20 1020.22 1020.15 1019.99 1019.73 1019.40 1019.03 1018.66 1018.33 1018.06 1017.86 1017.74 1017.68 1017.65 1017.63 1017.58 1017.50 1017.38 1017.21 1017.01 1016.80 1016.59 1016.42 1016.29 1016.22 1016.21 1016.28 1016.40 1016.58 1016.79 1017.01 1017.23
1020.98 1020.88 1020.73 1020.56 1020.40 1020.30 1020.25 1020.27 1020.33 1020.43 1020.52 1020.56 1020.54 1020.43 1020.23 1019.95 1019.61 1019.24 1018.88 1018.53 1018.24 1018.00 1017.82 1017.68 1017.57 1017.48 1017.38 1017.26 1017.12 1016.96 1016.77 1016.57 1016.37 1016.18 1016.03 1015.93 1015.89 1015.92 1016.02 1016.18 1016.39 1016.62 1016.86
1021.54 1021.36 1021.15 1020.93 1020.76 1020.64 1020.60 1020.63 1020.70 1020.79 1020.85 1020.86 1020.79 1020.65 1020.42 1020.13 1019.80 1019.44 1019.09 1018.76 1018.45 1018.18 1017.94 1017.72 1017.53 1017.36 1017.20 1017.05 1016.89 1016.74 1016.58 1016.41 1016.24 1016.07 1015.92 1015.80 1015.73 1015.73 1015.80 1015.93 1016.12 1016.35 1016.59
1022.01 1021.79 1021.52 1021.27 1021.08 1020.96 1020.93 1020.97 1021.04 1021.11 1021.14 1021.11 1021.00 1020.81 1020.56 1020.26 1019.94 1019.61 1019.29 1018.98 1018.67 1018.37 1018.08 1017.80 1017.53 1017.28 1017.06 1016.87 1016.71 1016.58 1016.46 1016.34 1016.22 1016.09 1015.96 1015.85 1015.78 1015.75 1015.78 1015.88 1016.04 1016.24 1016.46
1022.40 1022.14 1021.85 1021.59 1021.39 1021.29 1021.27 1021.31 1021.38 1021.43 1021.42 1021.34 1021.18 1020.95 1020.67 1020.37 1020.06 1019.76 1019.47 1019.18 1018.88 1018.57 1018.24 1017.90 1017.57 1017.25 1016.98 1016.76 1016.59 1016.48 1016.40 1016.35 1016.29 1016.23 1016.15 1016.08 1016.01 1015.97 1015.99 1016.05 1016.18 1016.34 1016.52
1022.72 1022.45 1022.16 1021.89 1021.71 1021.62 1021.61 1021.66 1021.72 1021.75 1021.71 1021.59 1021.38 1021.10 1020.80 1020.48 1020.18 1019.90 1019.64 1019.37 1019.09 1018.77 1018.42 1018.04 1017.65 1017.28 1016.96 1016.71 1016.54 1016.45 1016.41 1016.42 1016.43 1016.44 1016.43 1016.40 1016.37 1016.35 1016.36 1016.40 1016.49 1016.61 1016.74
1022.99 1022.74 1022.45 1022.20 1022.04 1021.96 1021.97 1022.03 1022.08 1022.09 1022.02 1021.85 1021.60 1021.29 1020.95 1020.62 1020.32 1020.05 1019.80 1019.56 1019.29 1018.98 1018.62 1018.21 1017.78 1017.37 1017.01 1016.73 1016.54 1016.45 1016.45 1016.49 1016.57 1016.64 1016.70 1016.74 1016.76 1016.78 1016.80 1016.85 1016.92 1017.01 1017.09
1023.25 1023.02 1022.75 1022.52 1022.36 1022.30 1022.32 1022.37 1022.43 1022.42 1022.33 1022.13 1021.84 1021.50 1021.13 1020.78 1020.47 1020.21 1019.97 1019.74 1019.49 1019.18 1018.82 1018.40 1017.95 1017.50 1017.11 1016.79 1016.58 1016.47 1016.46 1016.52 1016.62 1016.75 1016.87 1016.97 1017.06 1017.13 1017.20 1017.28 1017.36 1017.44 1017.49
1023.52 1023.30 1023.05 1022.83 1022.68 1022.61 1022.63 1022.68 1022.72 1022.71 1022.60 1022.38 1022.08 1021.71 1021.33 1020.96 1020.64 1020.37 1020.13 1019.91 1019.66 1019.37 1019.00 1018.58 1018.12 1017.65 1017.22 1016.86 1016.60 1016.44 1016.39 1016.43 1016.54 1016.68 1016.84 1017.00 1017.16 1017.31 1017.46 1017.60 1017.72 1017.82 1017.88
Thickness
5792 5793 5791 5790 5788 5786 5784 5783 5781 5779 5778 5777 5775 5774 5772 5770 5768 5766 5765 5763 5761 5759 5757 5756 5754 5753 5752 5751 5750 5749 5748 5746 5745 5744 5743 5741 5740 5739 5737 5736 5734 5733 5732
5795 5792 5790 5788 5786 5784 5782 5780 5778 5777 5775 5773 5772 5770 5769 5767 5765 5763 5761 5760 5758 5756 5755 5753 5752 5751 5750 5749 5748 5746 5745 5744 5743 5742 5741 5740 5739 5737 5736 5734 5733 5731 5730
5794 5791 5788 5786 5784 5782 5779 5777 5775 5774 5772 5770 5768 5766 5765 5763 5761 5760 5758 5756 5755 5753 5752 5751 5750 5748 5747 5746 5745 5744 5743 5741 5740 5739 5738 5738 5737 5736 5734 5733 5731 5730 5729
5792 5789 5786 5784 5782 5779 5777 5774 5772 5770 5768 5766 5764 5763 5761 5759 5757 5756 5754 5753 5751 5750 5749 5748 5747 5746 5745 5744 5743 5742 5741 5739 5738 5737 5736 5735 5734 5733 5733 5731 5729 5728 5727
5789 5786 5784 5781 5779 5776 5773 5771 5769 5767 5765 5763 5761 5759 5758 5756 5754 5753 5751 5750 5748 5747 5746 5745 5744 5743 5742 5742 5741 5740 5739 5738 5736 5735 5734 5733 5732 5731 5730 5729 5728 5726 5725
5785 5782 5780 5778 5775 5772 5770 5767 5765 5763 5761 5759 5758 5756 5754 5752 5751 5750 5748 5747 5746 5744 5743 5742 5741 5740 5740 5739 5739 5738 5737 5736 5735 5734 5733 5732 5731 5730 5729 5728 5727 5725 5724
5781 5779 5776 5773 5771 5768 5766 5763 5761 5759 5757 5755 5753 5752 5750 5749 5747 5746 5745 5744 5743 5742 5741 5740 5739 5738 5737 5737 5736 5735 5735 5735 5735 5733 5732 5731 5730 5729 5728 5727 5726 5724 5723
5778 5775 5772 5769 5766 5764 5762 5759 5757 5755 5753 5751 5749 5747 5746 5745 5743 5742 5741 5740 5740 5739 5738 5737 5736 5735 5735 5735 5734 5733 5732 5732 5732 5731 5731 5730 5729 5729 5728 5726 5724 5723 5722
5773 5770 5767 5764 5762 5759 5757 5755 5752 5750 5748 5746 5744 5743 5741 5740 5739 5738 5738 5737 5736 5736 5735 5734 5733 5733 5732 5732 5732 5731 5730 5730 5729 5729 5728 5728 5728 5727 5726 5725 5724 5722 5721
5766 5764 5762 5760 5758 5756 5753 5750 5747 5745 5742 5741 5740 5738 5737 5736 5735 5735 5734 5733 5733 5732 5732 5731 5731 5730 5729 5729 5729 5729 5728 5728 5727 5727 5727 5727 5727 5726 5725 5724 5723 5722 5720
5759 5758 5757 5756 5754 5751 5748 5745 5742 5739 5737 5736 5735 5734 5732 5731 5731 5730 5729 5729 5729 5729 5728 5727 5727 5727 5726 5726 5726 5726 5726 5726 5725 5725 5725 5726 5726 5724 5724 5723 5722 5720 5719
5751 5751 5751 5750 5748 5746 5744 5740 5737 5734 5732 5730 5729 5728 5727 5726 5726 5726 5725 5725 5724 5724 5724 5724 5724 5723 5723 5723 5723 5723 5723 5724 5724 5723 5724 5724 5724 5723 5722 5721 5720 5719 5718
5748 5746 5745 5745 5743 5741 5739 5735 5732 5730 5727 5725 5724 5723 5722 5721 5721 5721 5720 5720 5720 5720 5719 5719 5719 5719 5720 5720 5720 5720 5720 5721 5721 5721 5721 5722 5722 5721 5719 5719 5719 5718 5717
5742 5741 5740 5739 5737 5736 5733 5730 5727 5725 5723 5721 5719 5717 5717 5716 5716 5716 5716 5715 5715 5715 5715 5715 5715 5715 5716 5716 5717 5717 5717 5717 5718 5718 5718 5719 5719 5719 5719 5718 5718 5717 5716
5735 5734 5734 5734 5732 5730 5727 5725 5722 5720 5718 5716 5714 5713 5711 5711 5710 5710 5709 5709 5710 5710 5710 5710 5710 5711 5712 5712 5713 5713 5714 5714 5714 5714 5715 5716 5717 5717 5716 5716 5715 5715 5714
5729 5728 5728 5727 5727 5725 5722 5720 5717 5715 5713 5711 5709 5707 5707 5706 5705 5705 5704 5704 5705 5705 5705 5705 5706 5707 5707 5708 5708 5709 5709 5709 5710 5710 5712 5712 5713 5713 5713 5713 5712 5712 5712
5724 5722 5722 5721 5721 5719 5717 5714 5712 5709 5707 5705 5703 5702 5701 5700 5700 5699 5698 5698 5699 5700 5700 5700 5700 5701 5702 5702 5703 5704 5704 5704 5704 5706 5707 5708 5708 5709 5709 5709 5709 5709 5709
5719 5716 5715 5716 5714 5713 5710 5707 5705 5703 5700 5698 5697 5696 5695 5694 5693 5693 5692 5692 5693 5694 5694 5695 5694 5695 5695 5696 5697 5698 5699 5699 5699 5700 5701 5702 5702 5703 5704 5705 5705 5705 5705
5712 5709 5708 5708 5707 5705 5703 5701 5699 5697 5694 5692 5690 5689 5689 5687 5686 5686 5685 5685 5686 5687 5688 5688 5688 5688 5688 5689 5690 5692 5693 5693 5694 5694 5694 5695 5696 5697 5698 5699 5700 5700 5701
5706 5704 5702 5701 5700 5699 5697 5694 5692 5689 5686 5685 5684 5683 5681 5680 5680 5679 5678 5679 5679 5680 5680 5680 5680 5680 5681 5682 5684 5684 5685 5686 5687 5687 5688 5688 5689 5690 5691 5692 5694 5694 5695
5700 5697 5696 5694 5693 5692 5690 5686 5683 5680 5678 5677 5676 5675 5674 5673 5672 5672 5671 5671 5671 5672 5671 5672 5672 5672 5673 5674 5674 5673 5675 5677 5679 5679 5680 5680 5681 5682 5683 5685 5686 5687 5688
5693 5690 5688 5687 5686 5685 5683 5680 5677 5674 5671 5670 5668 5667 5666 5666 5665 5664 5663 5663 5663 5664 5663 5664 5664 5663 5664 5665 5663 5661 5661 5663 5667 5670 5670 5671 5672 5674 5675 5676 5678 5679 5680
5686 5683 5682 5680 5680 5679 5677 5674 5670 5667 5664 5662 5660 5658 5658 5658 5657 5657 5656 5656 5656 5655 5654 5655 5655 5655 5654 5655 5655 5653 5651 5651 5653 5657 5659 5661 5663 5665 5666 5667 5669 5671 5672
5680 5679 5676 5674 5672 5671 5669 5666 5662 5658 5654 5652 5651 5650 5650 5649 5648 5648 5648 5647 5647 5646 5646 5646 5648 5647 5646 5645 5646 5647 5647 5647 5644 5645 5647 5650 5653 5654 5656 5658 5660 5661 5663
5675 5672 5669 5667 5664 5663 5661 5658 5655 5651 5647 5645 5643 5641 5640 5639 5639 5639 5639 5638 5638 5638 5637 5638 5638 5639 5639 5638 5637 5637 5638 5638 5639 5637 5638 5639 5642 5644 5646 5649 5650 5652 5654
5668 5665 5662 5658 5656 5654 5652 5650 5647 5643 5639 5636 5634 5631 5630 5629 5629 5629 5630 5629 5629 5629 5629 5629 5629 5629 5630 5630 5630 5629 5628 5629 5629 5630 5630 5630 5631 5633 5637 5639 5641 5642 5644